(706) 295-7835

For Pilots

METAR

KRMG 260153Z AUTO 00000KT 10SM CLR 20/19 A3016 RMK AO2 SLP206 T02000189

Location & Communications

Get detailed information about the airport, provided by AirNav.

Pilot Services

We have fuel services, on-site repair and maintenance, 24-hour security and more.

Fuel Points

Russell Regional Airport is a Shell Aviation merchant and is proud to participate in the Shell Aero Class Rewards program!

Today's Fuel Prices

Jet A $4.56 / gallon
AvGas (100LL) $4.59 / gallon
Self Serve AvGas $4.19 / gallon
Learn about fuel points program